DECAYED

STARLINK-1769, 46382 (Decayed)

Orbit data source: Space-Track

STARLINK-1769, 46382 was a payload satellite owned by SpaceX/Seattle (US) in LEO that was launched on Thu, 03 Sep 2020 UTC via an FALCON 9 launch vehicle from the Air Force Eastern Test Range (AFETR). Payload-class satellites include a variety of spacecraft equipped with specific instruments for various scientific and technological missions. These include communications satellites like Starlink; space stations such as the ISS; scientific satellites like the Hubble; Earth observation satellites from companies like Planet Labs, Umbra, and HawkEye 360; GPS; miniature CubeSats for education and research; and military/defense satellites.

Not visible in the next 10 days
Identifier
46382, 2020-062BK
Orbit
Decayed
Country
Flag of USUS
Related business
Manufacturer
SpaceX/Seattle
Mission
Decayed Commercial Communications
Bus & Motor
STARLINK, Unknown motor
Mass
260 kg wet, ~248 kg dry
Launch date (UTC)
2020-09-03 (6 years ago)
Launch vehicle
FALCON 9
Launch site
Air Force Eastern Test Range (AFETR)
Object type
Payload
Rocket body
Debris
Shape & HBR
Box + 1 Pan, 10.1 m
Radar Cross Section
13.562 m², Large (>1 m²)

Expand to show TLE details & history
Last TLE update: 6 months ago

TLE from 6 months ago
0 STARLINK-1769
1 46382U 20062BK  26046.30757343  .15088193  12601-4  19923-3 0  9999
2 46382  53.0173   5.3625 0001375 168.3334 191.7748 16.49351781302501
Epoch: 2026-02-15T07:22Z
TLE epoch observation values (Epoch: 2026-02-15T07:22:54.344Z)
Latitude
-0.00003°
Longitude
109.3179°
Altitude
142.85 km
Speed
7.821 km/s
True Right ascension
00h 21m 26s
True Declination
0° 00' 00"
Sunlit
Object was in daylight at epoch
Visualization orbit readout
Latitude
Unknown
Longitude
Unknown
Altitude
Unknown
Speed
Unknown
Apparent Right ascension
Unknown
Apparent Declination
Unknown
Sunlit
N/A
Visualization observer readout
Local Sidereal Time
19:32:19
Azimuth
Unknown
Elevation
Unknown
Doppler factor
Unknown
Orbital elements
Apogee altitude
142.233 km
Perigee altitude
140.44 km
Semi-major axis
6,519.473 km
Eccentricity
0.00014
Inclination
53.0173°
RAAN
5.3625°
Arg. of periapsis
168.3334°
True anomaly
191.77159°
Mean anomaly
191.7748°
Eccentric anomaly
191.77319°
Mean motion
4.1231 °/min
Orbital period
87.31 mins
BSTAR
0.00019923
Loading maneuver chart data...
Computing Atmospheric mass density...

Documentation

Showing up to 5 results
|